Regional Weather Roundup
Issued by NWS

Home | Current Version | Previous Version | Text Only | Print | Product List | Glossary On
Versions: 1 2 3 4 5 6 7 8 9 10 11 12 13 14 15 16 17 18 19 20 21 22 23 24 25 26 27 28 29 30 31 32 33 34 35 36 37 38 39 40 41 42 43 44 45 46 47 48 49 50
000
ASUS43 KTOP 221508
RWRKS

WEATHER ROUNDUP FOR KANSAS
NATIONAL WEATHER SERVICE GOODLAND KS
1000 AM CDT MON MAY 22 2017

NOTE:  "FAIR" INDICATES FEW OR NO CLOUDS BELOW 12,000 FEET WITH NO
SIGNIFICANT WEATHER AND/OR OBSTRUCTIONS TO VISIBILITY.

KSZ001>006-013>018-027>032-041>047-221600-
NORTHWEST KANSAS

CITY           SKY/WX    TMP DP  RH WIND       PRES   REMARKS
GOODLAND       CLOUDY    53  49  86 NW9       30.10S
HAYS           LGT RAIN  56  54  93 NW6       30.07S
HILL CITY      LGT RAIN  58  54  86 W7        30.07R
RUSSELL        LGT RAIN  56  54  93 S5        30.06R
$$

KSZ061>065-074>080-084>089-221600-
SOUTHWEST KANSAS

CITY           SKY/WX    TMP DP  RH WIND       PRES   REMARKS
DODGE CITY     CLOUDY    59  53  80 SW13      30.08F
ELKHART          N/A     57  43  59 W6          N/A
GARDEN CITY    CLOUDY    56  52  86 NW6       30.11R
LIBERAL        CLOUDY    60  51  72 NW10      30.12F
PRATT          CLOUDY    56  51  81 SW20G28   30.10F
$$

KSZ066>073-081>083-090>101-221600-
SOUTHEAST KANSAS

CITY           SKY/WX    TMP DP  RH WIND       PRES   REMARKS
CHANUTE        MOSUNNY   69  54  58 S12       30.10F
COFFEYVILLE    SUNNY     69  58  67 S8        30.11S
HUTCHINSON     CLOUDY    63  54  72 SW8       30.07F
MEDICINE LODGE   N/A     60  49  66 SW14      30.10S
NEWTON         CLOUDY    62  54  74 SW12      30.09S
PARSONS        SUNNY     70  54  56 S6        30.12S
WICHITA INTL   CLOUDY    62  54  74 SW9       30.07F
WICHITA JABRA  PTSUNNY   63  52  67 SW10      30.08F
WICHITA MCCONL CLOUDY    63  52  68 SW10      30.07F
WINFIELD       CLOUDY    65  54  67 SW6       30.10F
$$

KSZ007>012-019>026-033>040-048>060-102>105-221600-
NORTHEAST KANSAS

CITY           SKY/WX    TMP DP  RH WIND       PRES   REMARKS
CONCORDIA      LGT RAIN  58  57  97 W7        30.04R
EMPORIA        CLOUDY    65  56  72 SW7       30.08F
LAWRENCE       LGT RAIN  63  55  75 SW12      30.07S
MANHATTAN      LGT RAIN  58  57  97 SW6       30.04F
MARYSVILLE     CLOUDY    61  55  82 S7        30.02S
OLATHE IND     CLOUDY    63  54  72 SW14      30.09R
OLATHE EXE     CLOUDY    64  55  72 SW10      30.08R
SALINA         CLOUDY    61  57  87 S8        30.05S
TOPEKA BILLARD RAIN      60  56  86 W8        30.07R FOG
TOPEKA FORBES  LGT RAIN  60  57  89 SW7       30.07S
$$




USA.gov is the U.S. government's official web portal to all federal, state and local government web resources and services.